Des Moines, IA

3:25 AM CST on January 21, 2018 (GMT -0600)
Des Moines International

Weather History for KDSM - January, 2013

Change the Weather History Date:

Monday, January 7, 2013

  Actual Average Record
Temperature  
Mean Temperature 36 °F 22 °F  
Max Temperature 46 °F 31 °F 59 °F (2003)
Min Temperature 25 °F 14 °F -25 °F (1912)
Degree Days  
Heating Degree Days 30 42  
Month to date heating degree days 294  
Since 1 July heating degree days 2761  
Cooling Degree Days 0 0  
Month to date cooling degree days 0  
Year to date cooling degree days 0  
Moisture  
Dew Point 23 °F    
Average Humidity 63    
Maximum Humidity 82    
Minimum Humidity 38    
Precipitation  
Precipitation 0.00 in 0.03 in 0.66 in (1937)
Month to date precipitation 0.23  
Year to date precipitation 0.23  
Snow  
Snow 0.00 in 0.30 in 9.10 in (1913)
Month to date snowfall 1.8  
Since 1 July snowfall 13.7  
Snow Depth 5.00 in    
Sea Level Pressure  
Sea Level Pressure 30.09 in    
Wind  
Wind Speed 11 mph (South)    
Max Wind Speed 20 mph    
Max Gust Speed 29 mph    
Visibility 10 miles    
Events      
T = Trace of Precipitation, MM = Missing Value Source: NWS Daily Summary

Daily Weather History Graph

Daily Weather History Graph

Search for Another Location

Airport or City:

Trip Planner

Search our weather history database for the weather conditions in past years. The results will help you decide how hot, cold, wet, or windy it might be!

Date:

Astronomy

Jan. 07, 2013 Rise Set
Actual Time 7:41 AM CST 5:01 PM CST
Civil Twilight 7:10 AM CST 5:32 PM CST
Nautical Twilight 6:35 AM CST 6:06 PM CST
Astronomical Twilight 6:02 AM CST 6:40 PM CST
Moon 3:04 AM CST (1/7) 1:13 PM CST (1/7)
Length of Visible Light 10h 22m
Length of Day
9h 20m
Waning Crescent, 22% of the Moon is Illuminated
Jan 7
Waning Crescent
Jan 11
New
Jan 18
First Quarter
Jan 26
Full
Feb 3
Last Quarter

Hourly Weather History & Observations

Time (CST) Temp. Windchill Dew Point Humidity Pressure Visibility Wind Dir Wind Speed Gust Speed Precip Events Conditions
12:54 AM 24.1 °F 12.5 °F 16.0 °F 71% 30.22 in 10.0 mi South 12.7 mph - N/A   Clear
1:54 AM 25.0 °F 14.8 °F 16.0 °F 69% 30.22 in 10.0 mi South 10.4 mph - N/A   Clear
2:54 AM 24.1 °F 13.7 °F 16.0 °F 71% 30.22 in 10.0 mi South 10.4 mph - N/A   Clear
3:54 AM 26.1 °F 15.0 °F 17.1 °F 69% 30.19 in 10.0 mi South 12.7 mph - N/A   Clear
4:54 AM 28.4 °F 17.0 °F 17.6 °F 64% 30.13 in 10.0 mi South 15.0 mph - N/A   Clear
5:54 AM 28.0 °F 17.5 °F 18.0 °F 66% 30.15 in 10.0 mi South 12.7 mph - N/A   Clear
6:54 AM 28.9 °F 17.7 °F 19.0 °F 67% 30.14 in 10.0 mi South 15.0 mph - N/A   Partly Cloudy
7:54 AM 30.0 °F 18.3 °F 19.0 °F 64% 30.10 in 10.0 mi South 17.3 mph 24.2 mph N/A   Partly Cloudy
8:54 AM 34.0 °F 22.7 °F 21.0 °F 59% 30.09 in 10.0 mi SSW 19.6 mph 28.8 mph N/A   Overcast
9:54 AM 36.0 °F 26.7 °F 21.9 °F 57% 30.10 in 10.0 mi SSW 15.0 mph 24.2 mph N/A   Overcast
10:54 AM 37.9 °F 29.6 °F 24.1 °F 57% 30.10 in 10.0 mi SSW 13.8 mph - N/A   Overcast
11:54 AM 42.1 °F 33.6 °F 25.0 °F 51% 30.07 in 10.0 mi SW 18.4 mph - N/A   Overcast
12:54 PM 42.8 °F 35.1 °F 24.8 °F 49% 30.00 in 10.0 mi SSW 16.1 mph - N/A   Overcast
1:54 PM 42.1 °F 36.1 °F 27.0 °F 55% 30.02 in 10.0 mi SSW 10.4 mph - N/A   Overcast
2:54 PM 42.1 °F 37.7 °F 28.0 °F 58% 30.04 in 10.0 mi SSW 6.9 mph - N/A   Overcast
3:54 PM 44.1 °F - 27.0 °F 51% 30.04 in 10.0 mi Calm Calm - N/A   Overcast
4:54 PM 42.8 °F 41.1 °F 26.6 °F 53% 30.01 in 10.0 mi SW 3.5 mph - N/A   Overcast
5:54 PM 39.0 °F - 28.0 °F 65% 30.04 in 10.0 mi Calm Calm - N/A   Overcast
6:54 PM 39.0 °F - 27.0 °F 62% 30.05 in 10.0 mi Calm Calm - N/A   Mostly Cloudy
7:54 PM 35.1 °F - 27.0 °F 72% 30.06 in 10.0 mi Calm Calm - N/A   Scattered Clouds
8:54 PM 33.1 °F 30.0 °F 27.0 °F 78% 30.05 in 10.0 mi SSE 3.5 mph - N/A   Scattered Clouds
9:54 PM 30.9 °F 25.2 °F 26.1 °F 82% 30.04 in 10.0 mi SE 5.8 mph - N/A   Mostly Cloudy
10:54 PM 33.1 °F 26.9 °F 26.1 °F 75% 30.03 in 10.0 mi SSE 6.9 mph - N/A   Partly Cloudy
11:54 PM 30.9 °F 23.5 °F 25.0 °F 79% 30.03 in 10.0 mi SSE 8.1 mph - N/A   Mostly Cloudy